Simultaneous Nadir Overpasses (SNOs) Predictions

Prediction of SNOs between GOES-16 and AQUA Satellite Orbit:

Table of predicted SNOs for the next 14.0 days since TLE Epoch: 12/7/2018
Index Date Time (GOES-16) GOES-16 Lat,Lon AQUA Lat,Lon Distance(km) Time Diff (sec)
1 12/09/2018 06:38:14 0.01, -75.19 0.02, -75.34 17.44 80
2 12/11/2018 06:23:22 0.02, -75.20 -0.58, -72.38 320.81 80
3 12/11/2018 18:47:25 -0.02, -75.20 -0.55, -77.56 268.61 80
4 12/13/2018 18:32:34 -0.02, -75.23 0.12, -74.61 70.26 80
5 12/15/2018 18:20:22 -0.02, -75.25 0.73, -71.65 409.70 80
6 12/16/2018 06:44:18 0.03, -75.26 0.37, -76.80 175.96 80
7 12/18/2018 06:29:27 0.03, -75.29 -0.31, -73.86 164.17 80
8 12/18/2018 18:53:30 -0.03, -75.30 -0.82, -79.04 424.77 80
9 12/20/2018 18:41:18 -0.04, -75.34 -0.20, -76.08 84.37 80




NCC Satellite Simultaneous Nadir Overpasses (SNOs) Prediction Service
